FW0380 Weather Reports


time (UTC)temp
F
wind
direction
speed
knots
gust
knots
rain 1hr
in
rain 24hr
in
rain mn
in
humidity
%
barometer
mb
20260506211630 68 216 3.5 9.6 0.00 0.11 0.11 77 1009.5
20260506211129 68 227 2.6 9.6 0.00 0.11 0.11 78 1009.5
20260506210629 68 242 2.6 7.8 0.00 0.11 0.11 80 1009.4
20260506210129 67 218 2.6 7.8 0.00 0.11 0.11 81 1009.4
20260506205630 67 225 3.5 7.8 0.00 0.11 0.11 80 1009.4
20260506205129 67 228 3.5 7.8 0.00 0.11 0.11 80 1009.3
20260506204630 67 224 2.6 7.8 0.00 0.11 0.11 81 1009.4
20260506204404 67 251 1.7 6.1 0.00 0.11 0.11 81 1009.4
20260506203629 66 219 2.6 7.8 0.00 0.11 0.11 82 1009.4
20260506203131 66 219 2.6 7.8 0.00 0.11 0.11 82 1009.3
20260506202630 66 206 2.6 7.0 0.00 0.11 0.11 82 1009.4
20260506202129 66 234 3.5 7.8 0.00 0.11 0.11 83 1009.2
20260506201630 66 221 3.5 8.7 0.00 0.11 0.11 82 1009.2
20260506201128 65 224 3.5 8.7 0.00 0.11 0.11 83 1009.2
20260506200629 65 236 3.5 8.7 0.00 0.11 0.11 84 1009.2
20260506200128 65 217 4.3 9.6 0.00 0.11 0.11 84 1009.2
20260506195629 64 238 3.5 9.6 0.00 0.11 0.11 85 1009.3
20260506195129 64 252 3.5 8.7 0.00 0.11 0.11 86 1009.3
20260506194631 64 236 2.6 8.7 0.00 0.11 0.11 86 1009.4
20260506194128 63 228 2.6 7.0 0.00 0.11 0.11 87 1009.5
20260506193626 63 223 3.5 7.8 0.00 0.11 0.11 86 1009.6
20260506193127 63 231 2.6 7.8 0.00 0.11 0.11 87 1009.7
20260506192626 63 238 2.6 8.7 0.00 0.11 0.11 86 1009.7
20260506192139 63 248 3.5 7.8 0.00 0.11 0.11 87 1009.7
20260506192132 63 217 3.5 8.7 0.00 0.11 0.11 86 1009.7
20260506191128 63 252 3.5 8.7 0.00 0.11 0.11 87 1009.9
20260506190627 63 238 3.5 8.7 0.00 0.11 0.11 87 1009.8
20260506190126 63 221 2.6 7.0 0.00 0.11 0.11 87 1009.9
20260506185625 63 214 2.6 7.0 0.00 0.11 0.11 87 1010.0
20260506185126 62 243 3.5 9.6 0.00 0.11 0.11 87 1010.0
20260506184626 62 225 3.5 9.6 0.00 0.11 0.11 87 1010.0
20260506184126 62 243 3.5 10.4 0.00 0.11 0.11 88 1009.9
20260506183627 62 211 2.6 10.4 0.00 0.11 0.11 88 1010.0
20260506183405 62 219 2.6 8.7 0.00 0.11 0.11 89 1010.0
20260506182626 62 223 2.6 9.6 0.00 0.11 0.11 89 1010.0
20260506182402 62 215 2.6 9.6 0.00 0.11 0.11 89 1010.2
20260506181619 62 113 3.5 10.4 0.00 0.11 0.11 89 1010.2
20260506181115 61 219 4.3 13.0 0.00 0.11 0.11 89 1010.2
20260506180847 61 273 3.5 13.0 0.00 0.11 0.11 89 1010.3
20260506180114 61 238 2.6 7.0 0.00 0.11 0.11 90 1010.3
20260506175851 61 180 2.6 7.8 0.00 0.11 0.11 90 1010.3
20260506175112 61 298 2.6 13.0 0.00 0.11 0.11 90 1010.3
20260506174848 61 124 2.6 13.0 0.00 0.11 0.11 90 1010.4
20260506174133 61 184 4.3 13.9 0.00 0.11 0.11 90 1010.5
20260506174125 61 246 3.5 13.9 0.00 0.11 0.11 90 1010.3
20260506173115 61 297 4.3 13.9 0.00 0.11 0.11 90 1010.4
20260506172612 61 238 4.3 12.2 0.00 0.11 0.11 90 1010.5
20260506172345 61 219 4.3 11.3 0.00 0.11 0.11 90 1010.4
20260506171611 61 244 3.5 13.9 0.00 0.11 0.11 90 1010.6
20260506171106 61 235 3.5 13.9 0.01 0.11 0.11 90 1010.5
20260506170606 61 180 3.5 11.3 0.02 0.11 0.11 90 1010.5
20260506170107 61 282 3.5 10.4 0.03 0.11 0.11 90 1010.6
20260506165606 61 223 3.5 10.4 0.04 0.11 0.11 90 1010.6
20260506165106 61 130 3.5 10.4 0.05 0.11 0.11 90 1010.6
20260506164606 61 145 2.6 10.4 0.05 0.11 0.11 90 1010.7
20260506164107 61 158 2.6 13.0 0.05 0.11 0.11 90 1010.7
20260506163608 61 180 1.7 13.0 0.07 0.11 0.11 90 1010.7
20260506163106 61 160 2.6 13.0 0.07 0.11 0.11 90 1010.8
20260506162607 61 283 2.6 13.0 0.08 0.11 0.11 90 1011.0
20260506162107 61 214 2.6 7.8 0.08 0.11 0.11 90 1011.0
20260506161604 61 239 2.6 9.6 0.08 0.11 0.11 90 1010.8
20260506161103 61 101 1.7 9.6 0.07 0.10 0.10 89 1010.9
20260506160604 61 169 1.7 9.6 0.07 0.09 0.08 89 1011.1
20260506160104 61 170 2.6 9.6 0.07 0.08 0.07 89 1011.3
20260506155604 61 178 2.6 9.6 0.06 0.07 0.07 88 1011.5
20260506155103 61 282 2.6 4.3 0.06 0.06 0.06 88 1011.7
20260506154605 61 215 2.6 9.6 0.06 0.06 0.06 87 1011.9
20260506154103 61 200 3.5 12.2 0.06 0.06 0.05 87 1011.9
20260506153839 62 243 2.6 12.2 0.04 0.04 0.04 86 1011.8
20260506153335 62 227 1.7 7.0 0.04 0.04 0.04 86 1011.9
20260506152603 62 169 2.6 7.8 0.03 0.03 0.03 85 1011.8
20260506152102 62 204 2.6 7.8 0.03 0.03 0.03 85 1011.8
20260506151601 62 245 2.6 9.6 0.03 0.03 0.03 84 1011.8
20260506151101 62 138 2.6 9.6 0.03 0.03 0.03 83 1011.8
20260506150600 63 219 2.6 7.8 0.02 0.02 0.02 82 1011.6
20260506150335 63 220 3.5 8.7 0.01 0.01 0.01 81 1011.6
20260506145602 63 251 3.5 13.0 0.01 0.01 0.01 79 1011.7
20260506145102 64 261 3.5 13.0 0.00 0.00 0.00 78 1011.7
20260506144900 64 236 3.5 8.7 0.00 0.00 0.00 75 1011.6
20260506144626 65 182 3.5 8.7 0.00 0.00 0.00 75 1011.8
20260506144616 64 210 3.5 10.4 0.00 0.00 0.00 77 1011.6
20260506143101 65 214 3.5 13.9 0.00 0.00 0.00 75 1011.8
20260506142602 65 194 4.3 13.9 0.00 0.00 0.00 75 1011.7
20260506142101 65 232 3.5 14.8 0.00 0.00 0.00 74 1011.6
20260506141602 65 186 3.5 14.8 0.00 0.00 0.00 74 1011.9
20260506141101 65 242 5.2 10.4 0.00 0.00 0.00 72 1011.9
20260506140602 65 242 4.3 16.5 0.00 0.00 0.00 72 1011.8
20260506135837 66 213 4.3 11.3 0.00 0.00 0.00 71 1011.6
20260506135336 66 257 3.5 11.3 0.00 0.00 0.00 71 1011.6
20260506134602 66 271 3.5 9.6 0.00 0.00 0.00 71 1011.5
20260506134100 66 233 3.5 9.6 0.00 0.00 0.00 73 1011.6
20260506133836 65 174 4.3 9.6 0.00 0.00 0.00 73 1011.5
20260506133102 65 236 4.3 9.6 0.00 0.00 0.00 73 1011.5
20260506132839 65 205 4.3 12.2 0.00 0.00 0.00 73 1011.5
20260506132101 65 230 3.5 12.2 0.00 0.00 0.00 74 1011.6
20260506131840 65 171 2.6 12.2 0.00 0.00 0.00 74 1011.6
20260506131101 65 306 2.6 12.2 0.00 0.00 0.00 74 1011.7
20260506130601 64 251 3.5 13.0 0.00 0.00 0.00 74 1011.7
20260506125835 64 187 4.3 13.0 0.00 0.00 0.00 74 1011.7
20260506125101 64 240 5.2 13.0 0.00 0.00 0.00 75 1011.8
20260506124601 65 238 4.3 12.2 0.00 0.00 0.00 74 1011.9
20260506124101 65 234 3.5 11.3 0.00 0.00 0.00 75 1011.9
20260506123601 65 350 3.5 10.4 0.00 0.00 0.00 75 1011.9
20260506123101 65 236 4.3 10.4 0.00 0.00 0.00 75 1011.7
20260506122602 65 144 4.3 10.4 0.00 0.00 0.00 75 1011.8
20260506122056 65 215 4.3 10.4 0.00 0.00 0.00 75 1011.7
20260506121550 64 217 4.3 13.0 0.00 0.00 0.00 75 1011.7
20260506121044 64 51 4.3 13.0 0.00 0.00 0.00 75 1011.8
20260506120537 64 209 3.5 12.2 0.00 0.00 0.00 75 1011.7
20260506120037 64 233 3.5 10.4 0.00 0.00 0.00 75 1011.6
20260506115536 64 221 3.5 11.3 0.00 0.00 0.00 76 1011.6
20260506115047 64 269 2.6 10.4 0.00 0.00 0.00 77 1011.6
20260506115040 64 209 2.6 11.3 0.00 0.00 0.00 76 1011.6
20260506114033 64 195 3.5 10.4 0.00 0.00 0.00 77 1011.6
20260506113529 64 174 4.3 13.0 0.00 0.00 0.00 77 1011.5
20260506113029 64 179 2.6 10.4 0.00 0.00 0.00 77 1011.4
20260506112529 64 132 3.5 13.0 0.00 0.00 0.00 78 1011.4
20260506112308 63 250 4.3 13.0 0.00 0.00 0.00 77 1011.5
20260506111529 63 196 3.5 10.4 0.00 0.00 0.00 78 1011.5
20260506111029 63 263 3.5 11.3 0.00 0.00 0.00 78 1011.5
20260506110805 63 121 3.5 11.3 0.00 0.00 0.00 78 1011.5
20260506110032 63 129 2.6 8.7 0.00 0.00 0.00 78 1011.5
20260506105530 63 171 3.5 10.4 0.00 0.00 0.00 79 1011.6
20260506105032 63 227 3.5 10.4 0.00 0.00 0.00 79 1011.5
20260506104531 63 151 3.5 11.3 0.00 0.00 0.00 79 1011.5
20260506104030 62 173 3.5 11.3 0.00 0.00 0.00 79 1011.4
20260506103530 62 222 2.6 9.6 0.00 0.00 0.00 79 1011.6
20260506103028 62 196 2.6 8.7 0.00 0.00 0.00 79 1011.4
20260506102530 62 148 2.6 13.0 0.00 0.00 0.00 79 1011.4
20260506102029 62 36 2.6 13.0 0.00 0.00 0.00 79 1011.5
20260506101810 62 134 3.5 15.6 0.00 0.00 0.00 79 1011.4
20260506101030 62 236 3.5 15.6 0.00 0.00 0.00 79 1011.5
20260506100808 62 246 1.7 13.9 0.00 0.00 0.00 79 1011.5
20260506100028 62 250 2.6 14.8 0.00 0.00 0.00 79 1011.4
20260506095529 62 142 3.5 14.8 0.00 0.00 0.00 79 1011.4
20260506095305 63 229 3.5 9.6 0.00 0.00 0.00 79 1011.4
20260506094530 63 194 3.5 13.0 0.00 0.00 0.00 79 1011.5
20260506094030 63 147 2.6 13.0 0.00 0.00 0.00 78 1011.5
20260506093529 63 136 2.6 8.7 0.00 0.00 0.00 78 1011.6
20260506093306 63 166 2.6 8.7 0.00 0.00 0.00 78 1011.6
20260506092531 63 173 2.6 8.7 0.00 0.00 0.00 78 1011.6
20260506092030 63 211 1.7 8.7 0.00 0.00 0.00 78 1011.6
20260506091535 63 129 2.6 9.6 0.00 0.00 0.00 78 1011.4
20260506091528 63 156 1.7 8.7 0.00 0.00 0.00 78 1011.5
20260506090749 63 261 2.6 9.6 0.00 0.00 0.00 77 1011.4
20260506090014 64 178 2.6 7.0 0.00 0.00 0.00 77 1011.5
20260506085759 64 286 1.7 8.7 0.00 0.00 0.00 77 1011.5
20260506085518 64 265 1.7 7.8 0.00 0.00 0.00 77 1011.5
20260506084510 64 144 1.7 8.7 0.00 0.00 0.00 77 1011.5
20260506084008 64 143 2.6 8.7 0.00 0.00 0.00 77 1011.5
20260506083507 64 126 2.6 7.8 0.00 0.00 0.00 77 1011.4
20260506083008 64 158 2.6 7.8 0.00 0.00 0.00 77 1011.4
20260506082507 64 32 1.7 7.0 0.00 0.00 0.00 77 1011.5
20260506082242 64 148 1.7 7.8 0.00 0.00 0.00 77 1011.6
20260506081516 64 111 1.7 7.0 0.00 0.00 0.00 77 1011.6
20260506081508 64 169 1.7 7.8 0.00 0.00 0.00 77 1011.6
20260506080502 64 148 1.7 7.8 0.00 0.00 0.00 77 1011.6
20260506073502 64 148 1.7 7.8 0.00 0.01 0.00 76 1011.8
20260506073003 64 159 1.7 9.6 0.00 0.04 0.00 76 1011.8
20260506072502 65 177 1.7 9.6 0.00 0.04 0.00 76 1011.8
20260506072001 65 193 1.7 9.6 0.00 0.04 0.00 75 1011.8
20260506071502 65 146 2.6 11.3 0.00 0.04 0.00 75 1011.8
20260506071238 65 199 1.7 11.3 0.00 0.04 0.00 75 1011.8
20260506070501 65 239 1.7 13.0 0.00 0.04 0.00 75 1011.8
20260506062501 65 102 2.6 9.6 0.00 0.04 0.00 74 1012.1
20260506062000 65 225 2.6 9.6 0.00 0.04 0.00 74 1012.2
20260506061502 65 162 2.6 9.6 0.00 0.04 0.00 74 1012.2
20260506061001 65 198 2.6 7.0 0.00 0.04 0.00 74 1012.1
20260506060455 65 254 3.5 11.3 0.00 0.04 0.00 74 1012.1
20260506050937 63 145 0.9 5.2 0.00 0.04 0.00 75 1012.6
20260506050435 63 171 0.9 5.2 0.00 0.04 0.00 75 1012.6
20260506044929 64 151 0.9 6.1 0.00 0.04 0.00 74 1012.7
20260506044429 64 91 0.9 4.3 0.00 0.04 0.00 74 1012.6
20260506044201 64 146 0.9 6.1 0.00 0.04 0.00 74 1012.7
20260506043706 64 155 0.9 6.1 0.00 0.04 0.00 73 1012.8
20260506042931 64 247 0.9 4.3 0.00 0.04 0.00 72 1012.8
20260506042429 64 141 0.9 3.5 0.00 0.04 0.00 73 1012.7
20260506041928 64 142 0.9 5.2 0.00 0.04 0.00 72 1012.7
20260506041422 64 123 0.0 5.2 0.00 0.04 0.00 71 1012.8
20260506040922 64 165 0.9 6.1 0.00 0.04 0.00 72 1012.8
20260506040421 64 246 0.9 6.1 0.00 0.04 0.00 71 1012.8
20260506035920 65 240 0.9 4.3 0.00 0.04 0.04 70 1012.7
20260506035419 65 126 0.9 4.3 0.00 0.04 0.04 70 1012.6
20260506035151 65 122 0.9 5.2 0.00 0.04 0.04 69 1012.6
20260506034413 65 172 0.9 5.2 0.00 0.04 0.04 69 1012.6
20260506033912 65 140 0.9 5.2 0.00 0.04 0.04 69 1012.6
20260506033412 66 140 0.9 5.2 0.00 0.04 0.04 68 1012.5
20260506032913 66 183 0.9 4.3 0.00 0.04 0.04 68 1012.4
20260506032409 66 186 0.9 4.3 0.00 0.04 0.04 67 1012.3
20260506031909 66 144 1.7 4.3 0.00 0.04 0.04 67 1012.4
20260506031640 67 118 0.9 5.2 0.00 0.04 0.04 66 1012.4
20260506030907 67 180 0.9 5.2 0.00 0.04 0.04 65 1012.4
20260506030432 67 142 0.9 6.1 0.00 0.04 0.04 64 1012.7
20260506030428 68 147 1.7 6.1 0.00 0.04 0.04 63 1012.6
20260506030419 67 136 0.9 6.1 0.00 0.04 0.04 64 1012.5
20260506024905 68 146 1.7 6.1 0.00 0.04 0.04 62 1012.6
20260506024404 68 95 1.7 5.2 0.00 0.04 0.04 62 1012.6
20260506024144 69 199 1.7 6.1 0.00 0.04 0.04 61 1012.8
20260506023406 69 225 0.9 6.1 0.00 0.04 0.04 60 1012.7
20260506022904 69 158 0.9 3.5 0.00 0.04 0.04 59 1012.7
20260506022401 69 229 1.7 7.0 0.00 0.04 0.04 58 1012.7
20260506021902 70 201 1.7 7.0 0.00 0.04 0.04 57 1012.6
20260506021403 70 145 0.9 7.0 0.00 0.04 0.04 56 1012.6
20260506020901 70 144 1.7 8.7 0.00 0.04 0.04 55 1012.6
20260506020402 70 162 2.6 8.7 0.00 0.04 0.04 54 1012.5
20260506015900 71 224 2.6 9.6 0.00 0.04 0.04 54 1012.5
20260506015401 71 242 2.6 9.6 0.00 0.04 0.04 53 1012.3
20260506014901 71 254 1.7 8.7 0.00 0.04 0.04 53 1012.3
20260506014401 71 114 1.7 11.3 0.00 0.04 0.04 52 1012.3
20260506014138 71 258 2.6 11.3 0.00 0.04 0.04 52 1012.2
20260506013401 71 170 3.5 13.0 0.00 0.04 0.04 51 1012.1
20260506012901 71 166 3.5 13.0 0.00 0.04 0.04 51 1012.1
20260506012638 71 188 2.6 14.8 0.00 0.04 0.04 51 1012.0
20260506012135 72 227 1.7 14.8 0.00 0.04 0.04 51 1012.0
20260506011401 72 226 2.6 14.8 0.00 0.04 0.04 50 1011.9
20260506010901 72 159 3.5 14.8 0.00 0.04 0.04 50 1011.9
20260506010402 72 157 2.6 13.0 0.00 0.04 0.04 49 1011.8
20260506005901 72 342 1.7 11.3 0.00 0.04 0.04 49 1011.7
20260506005401 72 180 2.6 11.3 0.00 0.04 0.04 48 1011.7
20260506004902 73 321 2.6 10.4 0.00 0.04 0.04 47 1011.7
20260506004402 73 192 1.7 7.8 0.00 0.04 0.04 48 1011.7
20260506003901 73 169 2.6 7.8 0.00 0.04 0.04 47 1011.6
20260506003640 73 246 2.6 8.7 0.00 0.04 0.04 47 1011.5
20260506003140 73 166 2.6 8.7 0.00 0.04 0.04 46 1011.7
20260506002636 73 201 3.5 12.2 0.00 0.04 0.04 46 1011.6
20260506001903 74 299 3.5 12.2 0.00 0.04 0.04 46 1011.5
20260506001640 74 219 3.5 12.2 0.00 0.04 0.04 46 1011.4
20260506000901 74 234 3.5 12.2 0.00 0.04 0.04 45 1011.3
20260506000401 74 252 3.5 9.6 0.00 0.04 0.04 45 1011.3
20260505235902 74 272 3.5 11.3 0.00 0.04 0.04 44 1011.1
20260505235403 75 229 4.3 12.2 0.00 0.04 0.04 44 1011.1
20260505234902 75 149 3.5 12.2 0.00 0.04 0.04 43 1011.1
20260505234402 75 263 4.3 12.2 0.00 0.04 0.04 43 1011.1
20260505233902 75 200 5.2 20.9 0.00 0.04 0.04 43 1011.1
20260505233402 76 225 5.2 20.9 0.00 0.04 0.04 43 1011.1
20260505232901 76 236 4.3 12.2 0.00 0.04 0.04 43 1011.1
20260505232402 76 272 3.5 12.2 0.00 0.04 0.04 43 1011.1
20260505231901 76 175 3.5 12.2 0.00 0.04 0.04 43 1011.1
20260505231401 77 332 3.5 11.3 0.00 0.04 0.04 42 1010.8
20260505230902 77 193 3.5 11.3 0.00 0.04 0.04 41 1010.8
20260505230401 77 290 2.6 11.3 0.00 0.04 0.04 40 1010.8
20260505225901 77 169 2.6 11.3 0.00 0.04 0.04 38 1010.9
20260505225401 77 220 3.5 11.3 0.00 0.04 0.04 39 1010.8
20260505224901 77 229 4.3 15.6 0.00 0.04 0.04 39 1010.8
20260505224401 78 190 4.3 15.6 0.00 0.04 0.04 39 1010.7
20260505223902 78 266 5.2 17.4 0.00 0.04 0.04 39 1010.7
20260505223402 78 223 5.2 17.4 0.00 0.04 0.04 39 1010.8
20260505222902 78 193 4.3 13.0 0.00 0.04 0.04 41 1010.8
20260505222401 78 232 4.3 12.2 0.00 0.04 0.04 41 1011.0
20260505221901 78 228 3.5 12.2 0.00 0.04 0.04 40 1010.9
20260505221358 78 244 3.5 12.2 0.00 0.04 0.04 40 1010.9
20260505221131 78 220 3.5 11.3 0.00 0.04 0.04 40 1010.9
20260505220637 78 221 3.5 11.3 0.00 0.04 0.04 39 1010.9
20260505215858 78 240 4.3 12.2 0.00 0.04 0.04 39 1010.9
20260505215359 79 207 4.3 12.2 0.00 0.04 0.04 39 1010.9
20260505214858 79 257 4.3 16.5 0.00 0.04 0.04 39 1010.8
20260505214358 79 219 5.2 16.5 0.00 0.04 0.04 37 1010.9
20260505213858 79 188 6.1 16.5 0.00 0.04 0.04 38 1010.7
20260505213400 79 243 6.1 16.5 0.00 0.04 0.04 37 1010.7
20260505212857 79 257 5.2 15.6 0.00 0.04 0.04 37 1010.7
20260505212355 79 229 5.2 17.4 0.00 0.04 0.04 37 1010.8